Regional Weather Roundup
Issued by NWS

Home | Current Version | Previous Version | Graphics & Text | Print | Product List | Glossary On
Versions: 1 2 3 4 5 6 7 8 9 10 11 12 13 14 15 16 17 18 19 20 21 22 23 24 25 26 27 28 29 30 31 32 33 34 35 36 37 38 39 40 41 42 43 44 45 46 47 48 49 50
000
ASUS43 KTOP 250908
RWRKS

WEATHER ROUNDUP FOR KANSAS
NATIONAL WEATHER SERVICE GOODLAND KS
400 AM CDT SAT MAR 25 2017

NOTE:  "FAIR" INDICATES FEW OR NO CLOUDS BELOW 12,000 FEET WITH NO
SIGNIFICANT WEATHER AND/OR OBSTRUCTIONS TO VISIBILITY.

KSZ001>006-013>018-027>032-041>047-251000-
NORTHWEST KANSAS

CITY           SKY/WX    TMP DP  RH WIND       PRES   REMARKS
GOODLAND       CLEAR     33  31  92 NW7       30.06R
HAYS             N/A     42  39  89 N15       29.98F
HILL CITY      CLOUDY    42  41  96 N10       30.02F
RUSSELL        CLOUDY    41  39  93 N20       29.95F
$$

KSZ061>065-074>080-084>089-251000-
SOUTHWEST KANSAS

CITY           SKY/WX    TMP DP  RH WIND       PRES   REMARKS
DODGE CITY     CLOUDY    41  39  93 N14G24    29.99F
ELKHART          N/A     35  23  61 NW14        N/A  WCI  26
GARDEN CITY    CLOUDY    42  38  85 N10       30.03S
GREAT BEND     CLOUDY    41  39  93 NW21      29.96R
LIBERAL        CLOUDY    43  36  75 NW13      30.02F
PRATT          CLOUDY    39  36  90 N17G28    29.94S WCI  29
$$

KSZ066>073-081>083-090>101-251000-
SOUTHEAST KANSAS

CITY           SKY/WX    TMP DP  RH WIND       PRES   REMARKS
CHANUTE        CLOUDY    53  51  93 W9        29.76F
COFFEYVILLE    CLOUDY    54  51  90 NW15      29.70F
HUTCHINSON     RAIN      42  40  92 NW17G26   29.89F
MEDICINE LODGE   N/A     43  38  82 NW17G32   29.91S
NEWTON         LGT RAIN  43  41  93 NW22G28   29.87R
PARSONS        CLOUDY    53  51  93 N9        29.72F
WICHITA INTL   LGT RAIN  43  42  97 NW21G30   29.85F
WICHITA JABRA  RAIN      43  42  97 N18G24    29.86R
WICHITA MCCONL LGT RAIN  44  42  92 N20       29.85R
WINFIELD       CLOUDY    47  43  86 NW16      29.86R
$$

KSZ007>012-019>026-033>040-048>060-102>105-251000-
NORTHEAST KANSAS

CITY           SKY/WX    TMP DP  RH WIND       PRES   REMARKS
CONCORDIA      LGT RAIN  41  40  96 N14       29.93S
EMPORIA        LGT RAIN  45  45 100 NW15      29.79F FOG
LAWRENCE       CLOUDY    48  48 100 W9        29.77S
MANHATTAN      LGT RAIN  44  42  93 N6        29.87S FOG
MARYSVILLE     RAIN      41  41 100 N16       29.88S
OLATHE IND     CLOUDY    51  50  96 NW10      29.76R
OLATHE EXE     CLOUDY    54  54 100 NW5       29.74S FOG
SALINA         CLOUDY    44  41  89 N20       29.91F
TOPEKA BILLARD CLOUDY    47  47 100 NW10G21   29.79F FOG
TOPEKA FORBES  CLOUDY    47  46  97 NW18      29.79F
$$



USA.gov is the U.S. government's official web portal to all federal, state and local government web resources and services.